STARLINK-30485, 57920

Orbit data source: Space-Track

STARLINK-30485, 57920 is a payload satellite owned by SpaceX/Seattle (US) in LEO that was launched on Sun, 24 Sep 2023 UTC via an FALCON 9 launch vehicle from the Air Force Eastern Test Range (AFETR). Payload-class satellites include a variety of spacecraft equipped with specific instruments for various scientific and technological missions. These include communications satellites like Starlink; space stations such as the ISS; scientific satellites like the Hubble; Earth observation satellites from companies like Planet Labs, Umbra, and HawkEye 360; GPS; miniature CubeSats for education and research; and military/defense satellites.

Loading next visibility...
Identifier
57920, 2023-147H
Orbit
LEO
Country
Flag of USUS
Related business
Manufacturer
SpaceX/Seattle
Mission
Operational Commercial Communications
Bus & Motor
STARLINK V2M, Unknown motor
Mass
730 kg wet, ~700 kg dry
Launch date (UTC)
2023-09-24 (3 years ago)
Launch vehicle
FALCON 9
Launch site
Air Force Eastern Test Range (AFETR)
Object type
Payload
Rocket body
Debris
Shape & HBR
Box + 2 Pan, 17.7 m
Radar Cross Section
33.884 m², Large (>1 m²)

Expand to show TLE details & history
Last TLE update: 2 days ago

TLE from 2 days ago
0 STARLINK-30485
1 57920U 23147H   26171.19115094  .00004062  00000-0  15717-3 0  9993
2 57920  43.0015 106.3934 0000958 261.9891  98.0851 15.27557036152305
Epoch: 2026-06-20T04:35Z
TLE epoch observation values (Epoch: 2026-06-20T04:35:15.441Z)
Latitude
-0.00007°
Longitude
129.16967°
Altitude
482.986 km
Speed
7.626 km/s
True Right ascension
07h 05m 34s
True Declination
0° 00' 00"
Sunlit
Object was in daylight at epoch
Visualization orbit readout
Latitude
Unknown
Longitude
Unknown
Altitude
Unknown
Speed
Unknown
Apparent Right ascension
Unknown
Apparent Declination
Unknown
Sunlit
N/A
Visualization observer readout
Local Sidereal Time
21:33:14
Azimuth
Unknown
Elevation
Unknown
Doppler factor
Unknown
Orbital elements
Apogee altitude
485.72 km
Perigee altitude
484.405 km
Semi-major axis
6,863.2 km
Eccentricity
0.0001
Inclination
43.0015°
RAAN
106.3934°
Arg. of periapsis
261.9891°
True anomaly
98.09597°
Mean anomaly
98.0851°
Eccentric anomaly
98.09053°
Mean motion
3.81727 °/min
Orbital period
94.31 mins
BSTAR
0.00015717
Loading maneuver chart data...
Computing Atmospheric mass density...

Documentation

Showing up to 5 results
|